www.cux-wetter.de
Wetterdaten: Mittwoch, 06.04.2011
Datum Zeit Temp. A. Feuchte A. Luftdruck Regen Wind Richtung Richtung Sonnenschein Solar Taupunkt Windchill Windben
06.04.2011 00:01 10,5 C 85 % 1018,5 hPa 0,0 l/m 34,6 km/h (5 Bft) W-SW 255 0 min 0 W/m 8,1 C 0,5 C 34,6 km/h (5 Bft)
06.04.2011 00:05 10,5 C 86 % 1018,5 hPa 0,0 l/m 35,6 km/h (5 Bft) W 260 0 min 0 W/m 8,3 C 0,3 C 35,6 km/h (5 Bft)
06.04.2011 00:10 10,4 C 86 % 1018,5 hPa 0,0 l/m 29,0 km/h (5 Bft) W 260 0 min 0 W/m 8,2 C 1,4 C 29,0 km/h (5 Bft)
06.04.2011 00:15 10,4 C 87 % 1018,5 hPa 0,0 l/m 41,3 km/h (6 Bft) W-SW 255 0 min 0 W/m 8,3 C -0,7 C 41,3 km/h (6 Bft)
06.04.2011 00:21 10,4 C 87 % 1018,5 hPa 0,0 l/m 34,3 km/h (5 Bft) W 260 0 min 0 W/m 8,3 C 0,4 C 34,3 km/h (5 Bft)
06.04.2011 00:26 10,4 C 87 % 1019,5 hPa 0,0 l/m 29,0 km/h (5 Bft) W-SW 250 0 min 0 W/m 8,3 C 1,4 C 29,0 km/h (5 Bft)
06.04.2011 00:31 10,3 C 88 % 1019,5 hPa 0,0 l/m 33,4 km/h (5 Bft) W 260 0 min 0 W/m 8,4 C 0,4 C 33,4 km/h (5 Bft)
06.04.2011 00:36 10,2 C 88 % 1019,5 hPa 0,0 l/m 31,1 km/h (5 Bft) W 260 0 min 0 W/m 8,3 C 0,7 C 31,1 km/h (5 Bft)
06.04.2011 00:40 10,2 C 89 % 1019,5 hPa 0,0 l/m 34,5 km/h (5 Bft) W-SW 250 0 min 0 W/m 8,5 C 0,1 C 34,5 km/h (5 Bft)
06.04.2011 00:45 10,2 C 89 % 1019,5 hPa 0,0 l/m 33,5 km/h (5 Bft) W-SW 250 0 min 0 W/m 8,5 C 0,2 C 33,5 km/h (5 Bft)
06.04.2011 00:50 10,2 C 89 % 1019,5 hPa 0,0 l/m 35,4 km/h (5 Bft) W 260 0 min 0 W/m 8,5 C -0,1 C 35,4 km/h (5 Bft)
06.04.2011 00:55 10,1 C 90 % 1019,5 hPa 0,0 l/m 33,2 km/h (5 Bft) W 260 0 min 0 W/m 8,5 C 0,2 C 33,2 km/h (5 Bft)
06.04.2011 01:00 10,1 C 90 % 1019,5 hPa 0,0 l/m 35,1 km/h (5 Bft) W-SW 255 0 min 0 W/m 8,5 C -0,2 C 35,1 km/h (5 Bft)
06.04.2011 01:05 10,0 C 90 % 1019,5 hPa 0,0 l/m 30,1 km/h (5 Bft) W-SW 255 0 min 0 W/m 8,4 C 0,6 C 30,1 km/h (5 Bft)
06.04.2011 01:10 10,0 C 91 % 1019,5 hPa 0,0 l/m 35,2 km/h (5 Bft) W-SW 255 0 min 0 W/m 8,6 C -0,3 C 35,2 km/h (5 Bft)
06.04.2011 01:15 10,0 C 91 % 1019,5 hPa 0,0 l/m 38,6 km/h (6 Bft) W-SW 255 0 min 0 W/m 8,6 C -0,9 C 38,6 km/h (6 Bft)
06.04.2011 01:20 10,0 C 91 % 1018,5 hPa 0,0 l/m 33,5 km/h (5 Bft) W-SW 250 0 min 0 W/m 8,6 C -0,0 C 33,5 km/h (5 Bft)
06.04.2011 01:25 9,9 C 91 % 1018,5 hPa 0,0 l/m 31,8 km/h (5 Bft) W 260 0 min 0 W/m 8,5 C 0,1 C 31,8 km/h (5 Bft)
06.04.2011 01:30 9,8 C 91 % 1018,5 hPa 0,0 l/m 34,8 km/h (5 Bft) W-SW 250 0 min 0 W/m 8,4 C -0,6 C 34,8 km/h (5 Bft)
06.04.2011 01:36 9,8 C 91 % 1018,5 hPa 0,0 l/m 36,3 km/h (5 Bft) W-SW 245 0 min 0 W/m 8,4 C -0,8 C 36,3 km/h (5 Bft)
06.04.2011 01:41 9,8 C 91 % 1018,5 hPa 0,0 l/m 35,6 km/h (5 Bft) W-SW 250 0 min 0 W/m 8,4 C -0,7 C 35,6 km/h (5 Bft)
06.04.2011 01:46 9,8 C 91 % 1018,5 hPa 0,0 l/m 40,3 km/h (6 Bft) W-SW 255 0 min 0 W/m 8,4 C -1,4 C 40,3 km/h (6 Bft)
06.04.2011 01:50 9,7 C 91 % 1018,5 hPa 0,0 l/m 29,3 km/h (5 Bft) W-SW 255 0 min 0 W/m 8,3 C 0,4 C 29,3 km/h (5 Bft)
06.04.2011 01:55 9,7 C 91 % 1018,5 hPa 0,0 l/m 35,6 km/h (5 Bft) W 260 0 min 0 W/m 8,3 C -0,8 C 35,6 km/h (5 Bft)
06.04.2011 02:00 9,8 C 91 % 1018,5 hPa 0,0 l/m 32,5 km/h (5 Bft) W-SW 255 0 min 0 W/m 8,4 C -0,1 C 32,5 km/h (5 Bft)
06.04.2011 02:06 9,8 C 90 % 1018,5 hPa 0,0 l/m 32,1 km/h (5 Bft) W-SW 255 0 min 0 W/m 8,2 C -0,1 C 32,1 km/h (5 Bft)
06.04.2011 02:11 9,8 C 90 % 1018,5 hPa 0,0 l/m 33,5 km/h (5 Bft) W-SW 255 0 min 0 W/m 8,2 C -0,3 C 33,5 km/h (5 Bft)
06.04.2011 02:16 9,8 C 90 % 1018,5 hPa 0,0 l/m 35,9 km/h (5 Bft) W-SW 255 0 min 0 W/m 8,2 C -0,8 C 35,9 km/h (5 Bft)
06.04.2011 02:20 9,8 C 89 % 1018,5 hPa 0,0 l/m 35,9 km/h (5 Bft) W-SW 255 0 min 0 W/m 8,1 C -0,8 C 35,9 km/h (5 Bft)
06.04.2011 02:25 9,9 C 89 % 1018,5 hPa 0,0 l/m 38,8 km/h (6 Bft) W 260 0 min 0 W/m 8,2 C -1,1 C 38,8 km/h (6 Bft)
06.04.2011 02:30 9,9 C 89 % 1018,5 hPa 0,0 l/m 39,0 km/h (6 Bft) W-SW 255 0 min 0 W/m 8,2 C -1,1 C 39,0 km/h (6 Bft)
06.04.2011 02:35 10,0 C 88 % 1018,5 hPa 0,0 l/m 32,7 km/h (5 Bft) W-SW 255 0 min 0 W/m 8,1 C 0,1 C 32,7 km/h (5 Bft)
06.04.2011 02:40 10,0 C 88 % 1018,5 hPa 0,0 l/m 38,7 km/h (6 Bft) W-SW 255 0 min 0 W/m 8,1 C -0,9 C 38,7 km/h (6 Bft)
06.04.2011 02:45 10,0 C 88 % 1018,5 hPa 0,0 l/m 36,0 km/h (5 Bft) W-SW 255 0 min 0 W/m 8,1 C -0,5 C 36,0 km/h (5 Bft)
06.04.2011 02:51 10,1 C 87 % 1018,5 hPa 0,0 l/m 37,0 km/h (5 Bft) W-SW 255 0 min 0 W/m 8,0 C -0,5 C 37,0 km/h (5 Bft)
06.04.2011 02:56 10,1 C 87 % 1018,5 hPa 0,0 l/m 42,3 km/h (6 Bft) W-SW 255 0 min 0 W/m 8,0 C -1,3 C 42,3 km/h (6 Bft)
06.04.2011 03:01 10,1 C 87 % 1018,5 hPa 0,0 l/m 32,2 km/h (5 Bft) W-SW 255 0 min 0 W/m 8,0 C 0,4 C 32,2 km/h (5 Bft)
06.04.2011 03:05 10,2 C 87 % 1018,5 hPa 0,0 l/m 32,2 km/h (5 Bft) W-SW 255 0 min 0 W/m 8,1 C 0,5 C 32,2 km/h (5 Bft)
06.04.2011 03:10 10,2 C 87 % 1018,5 hPa 0,0 l/m 38,5 km/h (6 Bft) W 260 0 min 0 W/m 8,1 C -0,6 C 38,5 km/h (6 Bft)
06.04.2011 03:16 10,2 C 87 % 1018,5 hPa 0,0 l/m 35,6 km/h (5 Bft) W-SW 255 0 min 0 W/m 8,1 C -0,1 C 35,6 km/h (5 Bft)
06.04.2011 03:21 10,1 C 87 % 1018,5 hPa 0,0 l/m 34,3 km/h (5 Bft) W-SW 255 0 min 0 W/m 8,0 C -0,0 C 34,3 km/h (5 Bft)
06.04.2011 03:26 10,2 C 86 % 1018,5 hPa 0,0 l/m 36,4 km/h (5 Bft) W-SW 255 0 min 0 W/m 8,0 C -0,3 C 36,4 km/h (5 Bft)
06.04.2011 03:30 10,2 C 86 % 1018,5 hPa 0,0 l/m 33,0 km/h (5 Bft) W 260 0 min 0 W/m 8,0 C 0,3 C 33,0 km/h (5 Bft)
06.04.2011 03:35 10,2 C 86 % 1018,5 hPa 0,0 l/m 30,3 km/h (5 Bft) W-SW 255 0 min 0 W/m 8,0 C 0,9 C 30,3 km/h (5 Bft)
06.04.2011 03:40 10,2 C 86 % 1018,5 hPa 0,0 l/m 27,6 km/h (5 Bft) W 260 0 min 0 W/m 8,0 C 1,5 C 27,6 km/h (5 Bft)
06.04.2011 03:45 10,1 C 86 % 1018,5 hPa 0,0 l/m 37,5 km/h (5 Bft) W-SW 255 0 min 0 W/m 7,9 C -0,6 C 37,5 km/h (5 Bft)
06.04.2011 03:50 10,1 C 86 % 1017,5 hPa 0,0 l/m 31,2 km/h (5 Bft) W-SW 250 0 min 0 W/m 7,9 C 0,5 C 31,2 km/h (5 Bft)
06.04.2011 03:56 10,1 C 86 % 1018,5 hPa 0,0 l/m 37,0 km/h (5 Bft) W-SW 250 0 min 0 W/m 7,9 C -0,5 C 37,0 km/h (5 Bft)
06.04.2011 04:01 10,1 C 86 % 1018,5 hPa 0,0 l/m 30,4 km/h (5 Bft) W-SW 245 0 min 0 W/m 7,9 C 0,7 C 30,4 km/h (5 Bft)
06.04.2011 04:05 10,1 C 86 % 1018,5 hPa 0,0 l/m 32,7 km/h (5 Bft) W-SW 250 0 min 0 W/m 7,9 C 0,3 C 32,7 km/h (5 Bft)
06.04.2011 04:10 10,1 C 86 % 1018,5 hPa 0,0 l/m 32,2 km/h (5 Bft) W-SW 250 0 min 0 W/m 7,9 C 0,4 C 32,2 km/h (5 Bft)
06.04.2011 04:15 10,0 C 86 % 1018,5 hPa 0,0 l/m 33,6 km/h (5 Bft) W-SW 255 0 min 0 W/m 7,8 C -0,1 C 33,6 km/h (5 Bft)
06.04.2011 04:21 10,1 C 87 % 1018,5 hPa 0,0 l/m 30,5 km/h (5 Bft) W-SW 255 0 min 0 W/m 8,0 C 0,7 C 30,5 km/h (5 Bft)
06.04.2011 04:26 10,0 C 87 % 1018,5 hPa 0,0 l/m 33,4 km/h (5 Bft) W-SW 255 0 min 0 W/m 7,9 C -0,0 C 33,4 km/h (5 Bft)
06.04.2011 04:31 10,0 C 87 % 1018,5 hPa 0,0 l/m 32,5 km/h (5 Bft) W-SW 255 0 min 0 W/m 7,9 C 0,2 C 32,5 km/h (5 Bft)
06.04.2011 04:35 10,0 C 87 % 1018,5 hPa 0,0 l/m 35,4 km/h (5 Bft) W-SW 255 0 min 0 W/m 7,9 C -0,4 C 35,4 km/h (5 Bft)
06.04.2011 04:40 10,0 C 87 % 1018,5 hPa 0,0 l/m 31,2 km/h (5 Bft) W-SW 250 0 min 0 W/m 7,9 C 0,4 C 31,2 km/h (5 Bft)
06.04.2011 04:45 10,1 C 87 % 1018,5 hPa 0,0 l/m 35,6 km/h (5 Bft) W-SW 250 0 min 0 W/m 8,0 C -0,3 C 35,6 km/h (5 Bft)
06.04.2011 04:50 10,1 C 87 % 1018,5 hPa 0,0 l/m 32,3 km/h (5 Bft) W-SW 255 0 min 0 W/m 8,0 C 0,3 C 32,3 km/h (5 Bft)
06.04.2011 04:55 10,1 C 87 % 1018,5 hPa 0,0 l/m 29,5 km/h (5 Bft) W-SW 255 0 min 0 W/m 8,0 C 0,9 C 29,5 km/h (5 Bft)
06.04.2011 05:01 10,1 C 88 % 1018,5 hPa 0,0 l/m 29,5 km/h (5 Bft) W-SW 255 0 min 0 W/m 8,2 C 0,9 C 29,5 km/h (5 Bft)
06.04.2011 05:05 10,1 C 88 % 1018,5 hPa 0,0 l/m 31,7 km/h (5 Bft) W-SW 250 0 min 0 W/m 8,2 C 0,4 C 31,7 km/h (5 Bft)
06.04.2011 05:10 10,2 C 88 % 1018,5 hPa 0,0 l/m 32,5 km/h (5 Bft) W-SW 240 0 min 0 W/m 8,3 C 0,4 C 32,5 km/h (5 Bft)
06.04.2011 05:15 10,2 C 88 % 1018,5 hPa 0,0 l/m 28,0 km/h (5 Bft) W-SW 245 0 min 0 W/m 8,3 C 1,4 C 28,0 km/h (5 Bft)
06.04.2011 05:20 10,2 C 89 % 1018,5 hPa 0,0 l/m 32,0 km/h (5 Bft) W-SW 250 0 min 0 W/m 8,5 C 0,5 C 32,0 km/h (5 Bft)
06.04.2011 05:26 10,2 C 89 % 1018,5 hPa 0,0 l/m 30,7 km/h (5 Bft) W-SW 255 0 min 0 W/m 8,5 C 0,8 C 30,7 km/h (5 Bft)
06.04.2011 05:31 10,3 C 89 % 1018,5 hPa 0,0 l/m 30,6 km/h (5 Bft) W 260 0 min 0 W/m 8,6 C 1,0 C 30,6 km/h (5 Bft)
06.04.2011 05:36 10,4 C 89 % 1018,5 hPa 0,0 l/m 29,1 km/h (5 Bft) W-SW 255 0 min 0 W/m 8,7 C 1,4 C 29,1 km/h (5 Bft)
06.04.2011 05:40 10,4 C 89 % 1018,5 hPa 0,0 l/m 31,1 km/h (5 Bft) W-SW 255 0 min 0 W/m 8,7 C 1,0 C 31,1 km/h (5 Bft)
06.04.2011 05:45 10,4 C 89 % 1018,5 hPa 0,0 l/m 35,3 km/h (5 Bft) W-SW 255 0 min 0 W/m 8,7 C 0,2 C 35,3 km/h (5 Bft)
06.04.2011 05:50 10,4 C 89 % 1018,5 hPa 0,0 l/m 29,1 km/h (5 Bft) W-SW 255 0 min 0 W/m 8,7 C 1,4 C 29,1 km/h (5 Bft)
06.04.2011 05:55 10,4 C 89 % 1018,5 hPa 0,0 l/m 29,2 km/h (5 Bft) W 260 0 min 0 W/m 8,7 C 1,4 C 29,2 km/h (5 Bft)
06.04.2011 06:00 10,4 C 90 % 1018,5 hPa 0,0 l/m 33,3 km/h (5 Bft) W-SW 255 0 min 0 W/m 8,8 C 0,6 C 33,3 km/h (5 Bft)
06.04.2011 06:05 10,5 C 90 % 1018,5 hPa 0,0 l/m 29,3 km/h (5 Bft) W-SW 255 0 min 0 W/m 8,9 C 1,5 C 29,3 km/h (5 Bft)
06.04.2011 06:10 10,5 C 90 % 1018,5 hPa 0,0 l/m 32,2 km/h (5 Bft) W-SW 250 0 min 0 W/m 8,9 C 0,9 C 32,2 km/h (5 Bft)
06.04.2011 06:15 10,5 C 90 % 1018,5 hPa 0,0 l/m 27,0 km/h (5 Bft) W-SW 255 0 min 0 W/m 8,9 C 2,0 C 27,0 km/h (5 Bft)
06.04.2011 06:20 10,5 C 90 % 1018,5 hPa 0,0 l/m 29,3 km/h (5 Bft) W-SW 255 0 min 0 W/m 8,9 C 1,5 C 29,3 km/h (5 Bft)
06.04.2011 06:25 10,5 C 90 % 1018,5 hPa 0,0 l/m 29,0 km/h (5 Bft) W-SW 255 0 min 0 W/m 8,9 C 1,6 C 29,0 km/h (5 Bft)
06.04.2011 06:31 10,5 C 90 % 1018,5 hPa 0,0 l/m 35,2 km/h (5 Bft) W-SW 250 0 min 0 W/m 8,9 C 0,4 C 35,2 km/h (5 Bft)
06.04.2011 06:36 10,5 C 91 % 1018,5 hPa 0,0 l/m 28,6 km/h (5 Bft) W 260 0 min 0 W/m 9,1 C 1,7 C 28,6 km/h (5 Bft)
06.04.2011 06:41 10,6 C 91 % 1018,5 hPa 0,0 l/m 32,2 km/h (5 Bft) W-SW 250 0 min 0 W/m 9,2 C 1,1 C 32,2 km/h (5 Bft)
06.04.2011 06:45 10,6 C 91 % 1018,5 hPa 0,0 l/m 29,7 km/h (5 Bft) W-SW 250 0 min 0 W/m 9,2 C 1,6 C 29,7 km/h (5 Bft)
06.04.2011 06:50 10,6 C 91 % 1018,5 hPa 0,0 l/m 33,6 km/h (5 Bft) W-SW 255 0 min 0 W/m 9,2 C 0,8 C 33,6 km/h (5 Bft)
06.04.2011 06:55 10,7 C 91 % 1018,5 hPa 0,0 l/m 33,8 km/h (5 Bft) W 260 0 min 0 W/m 9,3 C 0,9 C 33,8 km/h (5 Bft)
06.04.2011 07:00 10,7 C 92 % 1018,5 hPa 0,0 l/m 28,1 km/h (5 Bft) W 260 0 min 0 W/m 9,5 C 2,0 C 28,1 km/h (5 Bft)
06.04.2011 07:06 10,6 C 92 % 1019,5 hPa 0,0 l/m 29,6 km/h (5 Bft) W-SW 255 0 min 0 W/m 9,4 C 1,6 C 29,6 km/h (5 Bft)
06.04.2011 07:10 10,7 C 92 % 1019,5 hPa 0,0 l/m 28,6 km/h (5 Bft) W 260 0 min 0 W/m 9,5 C 1,9 C 28,6 km/h (5 Bft)
06.04.2011 07:15 10,8 C 92 % 1019,5 hPa 0,0 l/m 30,8 km/h (5 Bft) W 270 0 min 0 W/m 9,6 C 1,6 C 30,8 km/h (5 Bft)
06.04.2011 07:20 10,8 C 92 % 1019,5 hPa 0,0 l/m 30,8 km/h (5 Bft) W-SW 255 0 min 0 W/m 9,6 C 1,6 C 30,8 km/h (5 Bft)
06.04.2011 07:25 10,8 C 92 % 1019,5 hPa 0,0 l/m 32,5 km/h (5 Bft) W 260 0 min 0 W/m 9,6 C 1,3 C 32,5 km/h (5 Bft)
06.04.2011 07:30 10,8 C 93 % 1019,5 hPa 0,0 l/m 32,2 km/h (5 Bft) W 260 0 min 0 W/m 9,7 C 1,3 C 32,2 km/h (5 Bft)
06.04.2011 07:36 10,8 C 93 % 1019,5 hPa 0,0 l/m 27,8 km/h (5 Bft) W 265 0 min 0 W/m 9,7 C 2,3 C 27,8 km/h (5 Bft)
06.04.2011 07:41 10,8 C 93 % 1019,5 hPa 0,0 l/m 25,3 km/h (4 Bft) W 260 0 min 0 W/m 9,7 C 2,8 C 25,3 km/h (4 Bft)
06.04.2011 07:45 10,8 C 93 % 1019,5 hPa 0,0 l/m 25,3 km/h (4 Bft) W 260 0 min 0 W/m 9,7 C 2,8 C 25,3 km/h (4 Bft)
06.04.2011 07:50 10,9 C 93 % 1019,5 hPa 0,0 l/m 29,0 km/h (5 Bft) W 260 0 min 0 W/m 9,8 C 2,1 C 29,0 km/h (5 Bft)
06.04.2011 07:55 10,9 C 93 % 1019,5 hPa 0,0 l/m 27,8 km/h (5 Bft) W 270 0 min 0 W/m 9,8 C 2,4 C 27,8 km/h (5 Bft)
06.04.2011 08:00 10,9 C 93 % 1019,5 hPa 0,0 l/m 30,8 km/h (5 Bft) W-SW 255 0 min 0 W/m 9,8 C 1,8 C 30,8 km/h (5 Bft)
06.04.2011 08:06 10,9 C 93 % 1019,5 hPa 0,0 l/m 22,0 km/h (4 Bft) W 265 0 min 0 W/m 9,8 C 3,9 C 22,0 km/h (4 Bft)
06.04.2011 08:11 10,9 C 93 % 1019,5 hPa 0,0 l/m 24,8 km/h (4 Bft) W 260 0 min 0 W/m 9,8 C 3,1 C 24,8 km/h (4 Bft)
06.04.2011 08:15 11,0 C 93 % 1019,5 hPa 0,0 l/m 28,5 km/h (5 Bft) W 265 0 min 0 W/m 9,9 C 2,4 C 28,5 km/h (5 Bft)
06.04.2011 08:20 11,0 C 93 % 1019,5 hPa 0,0 l/m 27,3 km/h (5 Bft) W 260 0 min 0 W/m 9,9 C 2,6 C 27,3 km/h (5 Bft)
06.04.2011 08:25 11,0 C 93 % 1019,5 hPa 0,0 l/m 23,7 km/h (4 Bft) W-SW 255 0 min 0 W/m 9,9 C 3,5 C 23,7 km/h (4 Bft)
06.04.2011 08:30 11,0 C 93 % 1019,5 hPa 0,0 l/m 31,8 km/h (5 Bft) W 260 0 min 0 W/m 9,9 C 1,7 C 31,8 km/h (5 Bft)
06.04.2011 08:36 11,0 C 93 % 1019,5 hPa 0,0 l/m 23,4 km/h (4 Bft) W 260 0 min 0 W/m 9,9 C 3,6 C 23,4 km/h (4 Bft)
06.04.2011 08:41 11,0 C 93 % 1019,5 hPa 0,0 l/m 26,6 km/h (4 Bft) W 265 0 min 0 W/m 9,9 C 2,8 C 26,6 km/h (4 Bft)
06.04.2011 08:46 11,1 C 93 % 1019,5 hPa 0,0 l/m 28,9 km/h (5 Bft) W 270 0 min 0 W/m 10,0 C 2,4 C 28,9 km/h (5 Bft)
06.04.2011 08:50 11,1 C 93 % 1019,5 hPa 0,0 l/m 25,8 km/h (4 Bft) W-SW 255 0 min 0 W/m 10,0 C 3,1 C 25,8 km/h (4 Bft)
06.04.2011 08:55 11,2 C 93 % 1019,5 hPa 0,0 l/m 30,2 km/h (5 Bft) W 260 0 min 0 W/m 10,1 C 2,3 C 30,2 km/h (5 Bft)
06.04.2011 09:00 11,2 C 93 % 1019,5 hPa 0,0 l/m 29,3 km/h (5 Bft) W 260 0 min 0 W/m 10,1 C 2,5 C 29,3 km/h (5 Bft)
06.04.2011 09:06 11,2 C 93 % 1019,5 hPa 0,0 l/m 26,1 km/h (4 Bft) W 265 0 min 0 W/m 10,1 C 3,2 C 26,1 km/h (4 Bft)
06.04.2011 09:10 11,3 C 92 % 1019,5 hPa 0,0 l/m 30,0 km/h (5 Bft) W 265 0 min 0 W/m 10,0 C 2,5 C 30,0 km/h (5 Bft)
06.04.2011 09:15 11,3 C 92 % 1019,5 hPa 0,0 l/m 29,2 km/h (5 Bft) W 265 0 min 0 W/m 10,0 C 2,6 C 29,2 km/h (5 Bft)
06.04.2011 09:20 11,3 C 92 % 1019,5 hPa 0,0 l/m 18,8 km/h (3 Bft) W 280 0 min 0 W/m 10,0 C 5,3 C 18,8 km/h (3 Bft)
06.04.2011 09:25 11,3 C 92 % 1019,5 hPa 0,0 l/m 28,0 km/h (5 Bft) W 260 0 min 0 W/m 10,0 C 2,9 C 28,0 km/h (5 Bft)
06.04.2011 09:30 11,5 C 92 % 1019,5 hPa 0,0 l/m 25,1 km/h (4 Bft) W 270 0 min 0 W/m 10,2 C 3,8 C 25,1 km/h (4 Bft)
06.04.2011 09:36 11,5 C 92 % 1019,5 hPa 0,0 l/m 32,0 km/h (5 Bft) W 265 0 min 0 W/m 10,2 C 2,4 C 32,0 km/h (5 Bft)
06.04.2011 09:41 11,6 C 92 % 1019,5 hPa 0,0 l/m 25,6 km/h (4 Bft) W 265 0 min 0 W/m 10,3 C 3,9 C 25,6 km/h (4 Bft)
06.04.2011 09:45 11,6 C 92 % 1019,5 hPa 0,0 l/m 30,7 km/h (5 Bft) W 260 0 min 0 W/m 10,3 C 2,8 C 30,7 km/h (5 Bft)
06.04.2011 09:50 11,6 C 91 % 1019,5 hPa 0,0 l/m 30,7 km/h (5 Bft) W 260 0 min 0 W/m 10,2 C 2,8 C 30,7 km/h (5 Bft)
06.04.2011 09:55 11,8 C 91 % 1019,5 hPa 0,0 l/m 26,1 km/h (4 Bft) W 260 0 min 0 W/m 10,4 C 4,0 C 26,1 km/h (4 Bft)
06.04.2011 10:00 11,9 C 91 % 1019,5 hPa 0,0 l/m 31,2 km/h (5 Bft) W 265 0 min 0 W/m 10,5 C 3,1 C 31,2 km/h (5 Bft)
06.04.2011 10:06 12,0 C 90 % 1019,5 hPa 0,0 l/m 30,1 km/h (5 Bft) W 265 0 min 0 W/m 10,4 C 3,4 C 30,1 km/h (5 Bft)
06.04.2011 10:10 12,1 C 90 % 1019,5 hPa 0,0 l/m 30,5 km/h (5 Bft) W 265 0 min 0 W/m 10,5 C 3,5 C 30,5 km/h (5 Bft)
06.04.2011 10:15 12,2 C 90 % 1019,5 hPa 0,0 l/m 25,6 km/h (4 Bft) W 270 0 min 0 W/m 10,6 C 4,7 C 25,6 km/h (4 Bft)
06.04.2011 10:20 12,5 C 90 % 1019,5 hPa 0,0 l/m 20,1 km/h (4 Bft) W 260 0 min 0 W/m 10,9 C 6,5 C 20,1 km/h (4 Bft)
06.04.2011 10:25 12,6 C 89 % 1019,5 hPa 0,0 l/m 21,8 km/h (4 Bft) W 265 0 min 0 W/m 10,8 C 6,1 C 21,8 km/h (4 Bft)
06.04.2011 10:31 12,6 C 89 % 1019,5 hPa 0,0 l/m 31,9 km/h (5 Bft) W 260 0 min 0 W/m 10,8 C 4,0 C 31,9 km/h (5 Bft)
06.04.2011 10:36 12,7 C 88 % 1019,5 hPa 0,0 l/m 28,3 km/h (5 Bft) W 260 0 min 0 W/m 10,8 C 4,8 C 28,3 km/h (5 Bft)
06.04.2011 10:41 12,8 C 88 % 1019,5 hPa 0,0 l/m 28,6 km/h (5 Bft) W 265 0 min 0 W/m 10,9 C 4,9 C 28,6 km/h (5 Bft)
06.04.2011 10:45 12,8 C 88 % 1019,5 hPa 0,0 l/m 30,2 km/h (5 Bft) W 265 0 min 0 W/m 10,9 C 4,6 C 30,2 km/h (5 Bft)
06.04.2011 10:50 12,8 C 88 % 1019,5 hPa 0,0 l/m 27,5 km/h (5 Bft) W 265 0 min 0 W/m 10,9 C 5,1 C 27,5 km/h (5 Bft)
06.04.2011 10:55 12,8 C 88 % 1019,5 hPa 0,0 l/m 25,0 km/h (4 Bft) W 260 0 min 0 W/m 10,9 C 5,6 C 25,0 km/h (4 Bft)
06.04.2011 11:00 12,9 C 88 % 1019,5 hPa 0,0 l/m 30,6 km/h (5 Bft) W-SW 255 0 min 0 W/m 11,0 C 4,6 C 30,6 km/h (5 Bft)
06.04.2011 11:05 13,0 C 88 % 1019,5 hPa 0,0 l/m 25,8 km/h (4 Bft) W 265 0 min 0 W/m 11,1 C 5,7 C 25,8 km/h (4 Bft)
06.04.2011 11:10 13,0 C 88 % 1019,5 hPa 0,0 l/m 29,6 km/h (5 Bft) W-SW 255 0 min 0 W/m 11,1 C 4,9 C 29,6 km/h (5 Bft)
06.04.2011 11:15 13,0 C 88 % 1019,5 hPa 0,0 l/m 29,1 km/h (5 Bft) W-SW 255 0 min 0 W/m 11,1 C 5,0 C 29,1 km/h (5 Bft)
06.04.2011 11:20 12,9 C 88 % 1020,5 hPa 0,0 l/m 23,8 km/h (4 Bft) W 265 0 min 0 W/m 11,0 C 6,0 C 23,8 km/h (4 Bft)
06.04.2011 11:25 12,8 C 88 % 1020,5 hPa 0,0 l/m 21,9 km/h (4 Bft) W 260 0 min 0 W/m 10,9 C 6,4 C 21,9 km/h (4 Bft)
06.04.2011 11:31 12,8 C 88 % 1020,5 hPa 0,0 l/m 23,8 km/h (4 Bft) W 265 0 min 0 W/m 10,9 C 5,9 C 23,8 km/h (4 Bft)
06.04.2011 11:36 12,8 C 88 % 1020,5 hPa 0,0 l/m 25,5 km/h (4 Bft) W 275 0 min 0 W/m 10,9 C 5,5 C 25,5 km/h (4 Bft)
06.04.2011 11:40 12,7 C 88 % 1020,5 hPa 0,0 l/m 16,7 km/h (3 Bft) W-NW 290 0 min 0 W/m 10,8 C 7,8 C 16,7 km/h (3 Bft)
06.04.2011 11:45 12,6 C 88 % 1020,5 hPa 0,0 l/m 26,1 km/h (4 Bft) W 270 0 min 0 W/m 10,7 C 5,1 C 26,1 km/h (4 Bft)
06.04.2011 11:50 12,5 C 88 % 1020,5 hPa 0,0 l/m 25,2 km/h (4 Bft) W 270 0 min 0 W/m 10,6 C 5,2 C 25,2 km/h (4 Bft)
06.04.2011 11:55 12,5 C 88 % 1021,5 hPa 0,0 l/m 25,9 km/h (4 Bft) W 275 0 min 0 W/m 10,6 C 5,0 C 25,9 km/h (4 Bft)
06.04.2011 12:01 12,5 C 88 % 1021,5 hPa 0,0 l/m 25,0 km/h (4 Bft) W 275 0 min 0 W/m 10,6 C 5,2 C 25,0 km/h (4 Bft)
06.04.2011 12:05 12,5 C 88 % 1021,5 hPa 0,0 l/m 23,8 km/h (4 Bft) W 275 0 min 0 W/m 10,6 C 5,5 C 23,8 km/h (4 Bft)
06.04.2011 12:10 12,6 C 88 % 1021,5 hPa 0,0 l/m 22,6 km/h (4 Bft) W 270 0 min 0 W/m 10,7 C 5,9 C 22,6 km/h (4 Bft)
06.04.2011 12:15 12,7 C 88 % 1021,5 hPa 0,0 l/m 24,5 km/h (4 Bft) W 275 0 min 0 W/m 10,8 C 5,6 C 24,5 km/h (4 Bft)
06.04.2011 12:20 12,8 C 88 % 1020,5 hPa 0,0 l/m 26,1 km/h (4 Bft) W 275 0 min 0 W/m 10,9 C 5,4 C 26,1 km/h (4 Bft)
06.04.2011 12:26 12,9 C 87 % 1020,5 hPa 0,0 l/m 30,2 km/h (5 Bft) W 280 0 min 0 W/m 10,8 C 4,7 C 30,2 km/h (5 Bft)
06.04.2011 12:31 13,0 C 87 % 1020,5 hPa 0,0 l/m 29,6 km/h (5 Bft) W 270 0 min 0 W/m 10,9 C 4,9 C 29,6 km/h (5 Bft)
06.04.2011 12:35 13,0 C 86 % 1021,5 hPa 0,0 l/m 24,3 km/h (4 Bft) W-NW 295 0 min 0 W/m 10,7 C 6,1 C 24,3 km/h (4 Bft)
06.04.2011 12:40 13,2 C 86 % 1021,5 hPa 0,0 l/m 30,7 km/h (5 Bft) W 270 0 min 0 W/m 10,9 C 5,0 C 30,7 km/h (5 Bft)
06.04.2011 12:45 13,4 C 86 % 1021,5 hPa 0,0 l/m 26,1 km/h (4 Bft) W 275 0 min 0 W/m 11,1 C 6,2 C 26,1 km/h (4 Bft)
06.04.2011 12:50 13,5 C 85 % 1021,5 hPa 0,0 l/m 32,2 km/h (5 Bft) W 265 0 min 0 W/m 11,0 C 5,2 C 32,2 km/h (5 Bft)
06.04.2011 12:55 14,0 C 84 % 1021,5 hPa 0,0 l/m 30,0 km/h (5 Bft) W-SW 255 0 min 0 W/m 11,3 C 6,3 C 30,0 km/h (5 Bft)
06.04.2011 13:01 14,3 C 83 % 1020,5 hPa 0,0 l/m 34,0 km/h (5 Bft) W 270 0 min 0 W/m 11,5 C 6,1 C 34,0 km/h (5 Bft)
06.04.2011 13:05 15,0 C 81 % 1020,5 hPa 0,0 l/m 37,0 km/h (5 Bft) W 280 0 min 0 W/m 11,8 C 6,7 C 37,0 km/h (5 Bft)
06.04.2011 13:10 15,0 C 79 % 1021,5 hPa 0,0 l/m 36,7 km/h (5 Bft) W 280 0 min 0 W/m 11,4 C 6,7 C 36,7 km/h (5 Bft)
06.04.2011 13:15 15,3 C 78 % 1021,5 hPa 0,0 l/m 34,9 km/h (5 Bft) W 280 0 min 0 W/m 11,5 C 7,4 C 34,9 km/h (5 Bft)
06.04.2011 13:21 15,3 C 77 % 1021,5 hPa 0,0 l/m 33,2 km/h (5 Bft) W 280 0 min 0 W/m 11,3 C 7,6 C 33,2 km/h (5 Bft)
06.04.2011 13:26 15,2 C 77 % 1021,5 hPa 0,0 l/m 27,3 km/h (5 Bft) W 270 0 min 0 W/m 11,2 C 8,4 C 27,3 km/h (5 Bft)
06.04.2011 13:31 15,2 C 77 % 1021,5 hPa 0,0 l/m 30,2 km/h (5 Bft) W 260 0 min 0 W/m 11,2 C 7,9 C 30,2 km/h (5 Bft)
06.04.2011 13:35 15,3 C 77 % 1021,5 hPa 0,0 l/m 38,3 km/h (6 Bft) W 260 0 min 0 W/m 11,3 C 6,9 C 38,3 km/h (6 Bft)
06.04.2011 13:40 15,2 C 77 % 1021,5 hPa 0,0 l/m 35,9 km/h (5 Bft) W 270 0 min 0 W/m 11,2 C 7,1 C 35,9 km/h (5 Bft)
06.04.2011 13:45 15,0 C 77 % 1021,5 hPa 0,0 l/m 28,1 km/h (5 Bft) W 270 0 min 0 W/m 11,0 C 8,0 C 28,1 km/h (5 Bft)
06.04.2011 13:50 15,0 C 78 % 1021,5 hPa 0,0 l/m 21,8 km/h (4 Bft) W 265 0 min 0 W/m 11,2 C 9,3 C 21,8 km/h (4 Bft)
06.04.2011 13:56 15,1 C 78 % 1021,5 hPa 0,0 l/m 30,2 km/h (5 Bft) W-SW 255 0 min 0 W/m 11,3 C 7,8 C 30,2 km/h (5 Bft)
06.04.2011 14:01 15,0 C 78 % 1021,5 hPa 0,0 l/m 27,6 km/h (5 Bft) W 270 0 min 0 W/m 11,2 C 8,1 C 27,6 km/h (5 Bft)
06.04.2011 14:05 15,0 C 78 % 1021,5 hPa 0,0 l/m 30,9 km/h (5 Bft) W 270 0 min 0 W/m 11,2 C 7,5 C 30,9 km/h (5 Bft)
06.04.2011 14:10 15,1 C 78 % 1021,5 hPa 0,0 l/m 26,7 km/h (4 Bft) W-NW 285 0 min 0 W/m 11,3 C 8,4 C 26,7 km/h (4 Bft)
06.04.2011 14:16 15,1 C 78 % 1021,5 hPa 0,0 l/m 33,1 km/h (5 Bft) W-NW 285 0 min 0 W/m 11,3 C 7,3 C 33,1 km/h (5 Bft)
06.04.2011 14:21 15,0 C 78 % 1021,5 hPa 0,0 l/m 29,4 km/h (5 Bft) W 280 0 min 0 W/m 11,2 C 7,8 C 29,4 km/h (5 Bft)
06.04.2011 14:26 14,8 C 78 % 1021,5 hPa 0,0 l/m 35,5 km/h (5 Bft) W 275 0 min 0 W/m 11,0 C 6,6 C 35,5 km/h (5 Bft)
06.04.2011 14:30 14,8 C 79 % 1021,5 hPa 0,0 l/m 25,0 km/h (4 Bft) W-NW 290 0 min 0 W/m 11,2 C 8,3 C 25,0 km/h (4 Bft)
06.04.2011 14:35 14,8 C 79 % 1021,5 hPa 0,0 l/m 26,8 km/h (4 Bft) W 275 0 min 0 W/m 11,2 C 8,0 C 26,8 km/h (4 Bft)
06.04.2011 14:40 14,8 C 79 % 1021,5 hPa 0,0 l/m 29,2 km/h (5 Bft) W-NW 290 0 min 0 W/m 11,2 C 7,5 C 29,2 km/h (5 Bft)
06.04.2011 14:45 14,8 C 79 % 1021,5 hPa 0,0 l/m 27,1 km/h (5 Bft) W-NW 290 0 min 0 W/m 11,2 C 7,9 C 27,1 km/h (5 Bft)
06.04.2011 14:51 14,8 C 79 % 1021,5 hPa 0,0 l/m 31,6 km/h (5 Bft) W-NW 285 0 min 0 W/m 11,2 C 7,1 C 31,6 km/h (5 Bft)
06.04.2011 14:56 14,8 C 79 % 1021,5 hPa 0,0 l/m 31,2 km/h (5 Bft) W 280 0 min 0 W/m 11,2 C 7,2 C 31,2 km/h (5 Bft)
06.04.2011 15:00 14,7 C 79 % 1021,5 hPa 0,0 l/m 28,1 km/h (5 Bft) W-NW 285 0 min 0 W/m 11,1 C 7,6 C 28,1 km/h (5 Bft)
06.04.2011 15:05 14,6 C 79 % 1021,5 hPa 0,0 l/m 35,1 km/h (5 Bft) W 275 0 min 0 W/m 11,0 C 6,3 C 35,1 km/h (5 Bft)
06.04.2011 15:11 14,4 C 80 % 1021,5 hPa 0,0 l/m 35,9 km/h (5 Bft) W-NW 290 0 min 0 W/m 11,0 C 5,9 C 35,9 km/h (5 Bft)
06.04.2011 15:16 14,3 C 80 % 1021,5 hPa 0,0 l/m 27,4 km/h (5 Bft) W-NW 285 0 min 0 W/m 10,9 C 7,2 C 27,4 km/h (5 Bft)
06.04.2011 15:20 14,2 C 81 % 1021,5 hPa 0,0 l/m 29,8 km/h (5 Bft) W-NW 290 0 min 0 W/m 11,0 C 6,6 C 29,8 km/h (5 Bft)
06.04.2011 15:25 14,0 C 81 % 1021,5 hPa 0,0 l/m 31,6 km/h (5 Bft) W-NW 295 0 min 0 W/m 10,8 C 6,0 C 31,6 km/h (5 Bft)
06.04.2011 15:30 13,9 C 81 % 1021,5 hPa 0,0 l/m 32,4 km/h (5 Bft) W-NW 285 0 min 0 W/m 10,7 C 5,7 C 32,4 km/h (5 Bft)
06.04.2011 15:36 13,9 C 81 % 1021,5 hPa 0,0 l/m 30,7 km/h (5 Bft) W-NW 300 0 min 0 W/m 10,7 C 6,0 C 30,7 km/h (5 Bft)
06.04.2011 15:41 13,6 C 81 % 1021,5 hPa 0,0 l/m 24,3 km/h (4 Bft) W-NW 290 0 min 0 W/m 10,4 C 6,9 C 24,3 km/h (4 Bft)
06.04.2011 15:45 13,4 C 81 % 1021,5 hPa 0,0 l/m 31,1 km/h (5 Bft) W-NW 295 0 min 0 W/m 10,2 C 5,2 C 31,1 km/h (5 Bft)
06.04.2011 15:50 13,3 C 81 % 1021,5 hPa 0,0 l/m 32,6 km/h (5 Bft) W-NW 295 0 min 0 W/m 10,1 C 4,8 C 32,6 km/h (5 Bft)
06.04.2011 15:55 13,1 C 81 % 1021,5 hPa 0,0 l/m 29,4 km/h (5 Bft) W 280 0 min 0 W/m 9,9 C 5,1 C 29,4 km/h (5 Bft)
06.04.2011 16:00 12,8 C 82 % 1021,5 hPa 0,0 l/m 29,2 km/h (5 Bft) W-NW 295 0 min 0 W/m 9,8 C 4,7 C 29,2 km/h (5 Bft)
06.04.2011 16:05 12,7 C 83 % 1021,5 hPa 0,0 l/m 26,1 km/h (4 Bft) W-NW 290 0 min 0 W/m 9,9 C 5,2 C 26,1 km/h (4 Bft)
06.04.2011 16:10 12,6 C 84 % 1021,5 hPa 0,0 l/m 36,8 km/h (5 Bft) W-NW 295 0 min 0 W/m 10,0 C 3,2 C 36,8 km/h (5 Bft)
06.04.2011 16:15 12,6 C 84 % 1021,5 hPa 0,0 l/m 28,8 km/h (5 Bft) NW 305 0 min 0 W/m 10,0 C 4,5 C 28,8 km/h (5 Bft)
06.04.2011 16:21 12,5 C 85 % 1021,5 hPa 0,0 l/m 34,6 km/h (5 Bft) W-NW 300 0 min 0 W/m 10,0 C 3,4 C 34,6 km/h (5 Bft)
06.04.2011 16:26 12,5 C 86 % 1021,5 hPa 0,0 l/m 31,0 km/h (5 Bft) W-NW 300 0 min 0 W/m 10,2 C 4,0 C 31,0 km/h (5 Bft)
06.04.2011 16:30 12,6 C 86 % 1021,5 hPa 0,0 l/m 34,9 km/h (5 Bft) NW 305 0 min 0 W/m 10,3 C 3,5 C 34,9 km/h (5 Bft)
06.04.2011 16:35 12,7 C 87 % 1021,5 hPa 0,0 l/m 34,9 km/h (5 Bft) W-NW 300 0 min 0 W/m 10,6 C 3,6 C 34,9 km/h (5 Bft)
06.04.2011 16:40 12,8 C 87 % 1021,5 hPa 0,0 l/m 27,1 km/h (5 Bft) W-NW 295 0 min 0 W/m 10,7 C 5,2 C 27,1 km/h (5 Bft)
06.04.2011 16:46 12,8 C 86 % 1021,5 hPa 0,0 l/m 26,2 km/h (4 Bft) W-NW 285 0 min 0 W/m 10,5 C 5,4 C 26,2 km/h (4 Bft)
06.04.2011 16:51 12,8 C 86 % 1021,5 hPa 0,0 l/m 28,3 km/h (5 Bft) NW 305 0 min 0 W/m 10,5 C 4,9 C 28,3 km/h (5 Bft)
06.04.2011 16:55 12,8 C 86 % 1021,5 hPa 0,0 l/m 31,2 km/h (5 Bft) W-NW 285 0 min 0 W/m 10,5 C 4,4 C 31,2 km/h (5 Bft)
06.04.2011 17:00 12,8 C 86 % 1021,5 hPa 0,0 l/m 32,2 km/h (5 Bft) W-NW 285 0 min 0 W/m 10,5 C 4,2 C 32,2 km/h (5 Bft)
06.04.2011 17:06 12,8 C 86 % 1021,5 hPa 0,0 l/m 31,9 km/h (5 Bft) W 280 0 min 0 W/m 10,5 C 4,3 C 31,9 km/h (5 Bft)
06.04.2011 17:10 12,7 C 86 % 1021,5 hPa 0,0 l/m 31,7 km/h (5 Bft) W 280 0 min 0 W/m 10,4 C 4,1 C 31,7 km/h (5 Bft)
06.04.2011 17:15 12,6 C 86 % 1021,5 hPa 0,0 l/m 29,2 km/h (5 Bft) W-NW 285 0 min 0 W/m 10,3 C 4,5 C 29,2 km/h (5 Bft)
06.04.2011 17:20 12,6 C 86 % 1021,5 hPa 0,0 l/m 29,5 km/h (5 Bft) W 280 0 min 0 W/m 10,3 C 4,4 C 29,5 km/h (5 Bft)
06.04.2011 17:26 12,6 C 87 % 1021,5 hPa 0,0 l/m 25,3 km/h (4 Bft) W-NW 295 0 min 0 W/m 10,5 C 5,3 C 25,3 km/h (4 Bft)
06.04.2011 17:31 12,5 C 87 % 1021,5 hPa 0,0 l/m 24,8 km/h (4 Bft) W-NW 290 0 min 0 W/m 10,4 C 5,3 C 24,8 km/h (4 Bft)
06.04.2011 17:35 12,6 C 87 % 1021,5 hPa 0,0 l/m 27,5 km/h (5 Bft) W 275 0 min 0 W/m 10,5 C 4,8 C 27,5 km/h (5 Bft)
06.04.2011 17:40 12,5 C 87 % 1021,5 hPa 0,0 l/m 29,8 km/h (5 Bft) W 280 0 min 0 W/m 10,4 C 4,2 C 29,8 km/h (5 Bft)
06.04.2011 17:45 12,5 C 87 % 1021,5 hPa 0,0 l/m 29,4 km/h (5 Bft) W 270 0 min 0 W/m 10,4 C 4,3 C 29,4 km/h (5 Bft)
06.04.2011 17:50 12,6 C 87 % 1021,5 hPa 0,0 l/m 24,0 km/h (4 Bft) W 260 0 min 0 W/m 10,5 C 5,6 C 24,0 km/h (4 Bft)
06.04.2011 17:56 12,7 C 88 % 1021,5 hPa 0,0 l/m 26,0 km/h (4 Bft) W 260 0 min 0 W/m 10,8 C 5,3 C 26,0 km/h (4 Bft)
06.04.2011 18:01 12,8 C 89 % 1021,5 hPa 0,0 l/m 23,5 km/h (4 Bft) W 260 0 min 0 W/m 11,0 C 6,0 C 23,5 km/h (4 Bft)
06.04.2011 18:05 12,8 C 89 % 1021,5 hPa 0,0 l/m 24,6 km/h (4 Bft) W 275 0 min 0 W/m 11,0 C 5,7 C 24,6 km/h (4 Bft)
06.04.2011 18:11 12,7 C 89 % 1021,5 hPa 0,0 l/m 25,3 km/h (4 Bft) W 280 0 min 0 W/m 10,9 C 5,4 C 25,3 km/h (4 Bft)
06.04.2011 18:16 12,8 C 90 % 1021,5 hPa 0,0 l/m 32,4 km/h (5 Bft) W 265 0 min 0 W/m 11,2 C 4,2 C 32,4 km/h (5 Bft)
06.04.2011 18:20 12,8 C 90 % 1021,5 hPa 0,0 l/m 22,2 km/h (4 Bft) W 265 0 min 0 W/m 11,2 C 6,3 C 22,2 km/h (4 Bft)
06.04.2011 18:25 12,9 C 90 % 1021,5 hPa 0,0 l/m 26,0 km/h (4 Bft) W 270 0 min 0 W/m 11,3 C 5,5 C 26,0 km/h (4 Bft)
06.04.2011 18:30 13,0 C 90 % 1021,5 hPa 0,0 l/m 26,8 km/h (4 Bft) W 270 0 min 0 W/m 11,4 C 5,5 C 26,8 km/h (4 Bft)
06.04.2011 18:36 13,0 C 90 % 1021,5 hPa 0,0 l/m 27,0 km/h (5 Bft) W-NW 290 0 min 0 W/m 11,4 C 5,5 C 27,0 km/h (5 Bft)
06.04.2011 18:41 13,1 C 90 % 1021,5 hPa 0,0 l/m 25,0 km/h (4 Bft) W 280 0 min 0 W/m 11,5 C 6,0 C 25,0 km/h (4 Bft)
06.04.2011 18:45 13,1 C 89 % 1020,5 hPa 0,0 l/m 25,7 km/h (4 Bft) W 280 0 min 0 W/m 11,3 C 5,9 C 25,7 km/h (4 Bft)
06.04.2011 18:50 13,1 C 89 % 1020,5 hPa 0,0 l/m 22,8 km/h (4 Bft) W 270 0 min 0 W/m 11,3 C 6,6 C 22,8 km/h (4 Bft)
06.04.2011 18:55 13,2 C 89 % 1020,5 hPa 0,0 l/m 18,6 km/h (3 Bft) W 270 0 min 0 W/m 11,4 C 7,8 C 18,6 km/h (3 Bft)
06.04.2011 19:01 13,3 C 89 % 1020,5 hPa 0,0 l/m 24,6 km/h (4 Bft) W 275 0 min 0 W/m 11,5 C 6,4 C 24,6 km/h (4 Bft)
06.04.2011 19:05 13,4 C 89 % 1020,5 hPa 0,0 l/m 20,0 km/h (4 Bft) W 275 0 min 0 W/m 11,6 C 7,7 C 20,0 km/h (4 Bft)
06.04.2011 19:11 13,4 C 89 % 1020,5 hPa 0,0 l/m 20,0 km/h (4 Bft) W 275 0 min 0 W/m 11,6 C 7,7 C 20,0 km/h (4 Bft)
06.04.2011 19:16 13,4 C 89 % 1020,5 hPa 0,0 l/m 24,6 km/h (4 Bft) W 270 0 min 0 W/m 11,6 C 6,5 C 24,6 km/h (4 Bft)
06.04.2011 19:20 13,5 C 88 % 1020,5 hPa 0,0 l/m 24,3 km/h (4 Bft) W 280 0 min 0 W/m 11,6 C 6,7 C 24,3 km/h (4 Bft)
06.04.2011 19:25 13,5 C 88 % 1020,5 hPa 0,0 l/m 16,1 km/h (3 Bft) W 280 0 min 0 W/m 11,6 C 9,0 C 16,1 km/h (3 Bft)
06.04.2011 19:30 13,4 C 88 % 1020,5 hPa 0,0 l/m 22,5 km/h (4 Bft) W 280 0 min 0 W/m 11,5 C 7,0 C 22,5 km/h (4 Bft)
06.04.2011 19:35 13,3 C 88 % 1020,5 hPa 0,0 l/m 19,4 km/h (3 Bft) W 280 0 min 0 W/m 11,4 C 7,7 C 19,4 km/h (3 Bft)
06.04.2011 19:41 13,3 C 88 % 1020,5 hPa 0,0 l/m 16,2 km/h (3 Bft) W 275 0 min 0 W/m 11,4 C 8,7 C 16,2 km/h (3 Bft)
06.04.2011 19:45 13,2 C 88 % 1020,5 hPa 0,0 l/m 20,6 km/h (4 Bft) W 280 0 min 0 W/m 11,3 C 7,3 C 20,6 km/h (4 Bft)
06.04.2011 19:50 13,2 C 88 % 1020,5 hPa 0,0 l/m 19,3 km/h (3 Bft) W 270 0 min 0 W/m 11,3 C 7,6 C 19,3 km/h (3 Bft)
06.04.2011 19:55 13,2 C 89 % 1020,5 hPa 0,0 l/m 19,3 km/h (3 Bft) W 270 0 min 0 W/m 11,4 C 7,6 C 19,3 km/h (3 Bft)
06.04.2011 20:00 13,2 C 89 % 1020,5 hPa 0,0 l/m 19,5 km/h (3 Bft) W 265 0 min 0 W/m 11,4 C 7,6 C 19,5 km/h (3 Bft)
06.04.2011 20:05 13,3 C 89 % 1020,5 hPa 0,0 l/m 19,6 km/h (3 Bft) W 270 0 min 0 W/m 11,5 C 7,7 C 19,6 km/h (3 Bft)
06.04.2011 20:10 13,4 C 89 % 1020,5 hPa 0,0 l/m 18,8 km/h (3 Bft) W 280 0 min 0 W/m 11,6 C 8,0 C 18,8 km/h (3 Bft)
06.04.2011 20:16 13,4 C 89 % 1020,5 hPa 0,0 l/m 19,5 km/h (3 Bft) W 280 0 min 0 W/m 11,6 C 7,8 C 19,5 km/h (3 Bft)
06.04.2011 20:21 13,2 C 88 % 1020,5 hPa 0,0 l/m 23,6 km/h (4 Bft) W-NW 285 0 min 0 W/m 11,3 C 6,5 C 23,6 km/h (4 Bft)
06.04.2011 20:25 13,2 C 89 % 1020,5 hPa 0,0 l/m 16,0 km/h (3 Bft) W 265 0 min 0 W/m 11,4 C 8,7 C 16,0 km/h (3 Bft)
06.04.2011 20:30 13,2 C 89 % 1020,5 hPa 0,0 l/m 19,7 km/h (3 Bft) W 260 0 min 0 W/m 11,4 C 7,5 C 19,7 km/h (3 Bft)
06.04.2011 20:35 13,2 C 89 % 1020,5 hPa 0,0 l/m 20,6 km/h (4 Bft) W 265 0 min 0 W/m 11,4 C 7,3 C 20,6 km/h (4 Bft)
06.04.2011 20:41 13,2 C 89 % 1020,5 hPa 0,0 l/m 14,4 km/h (3 Bft) W 260 0 min 0 W/m 11,4 C 9,2 C 14,4 km/h (3 Bft)
06.04.2011 20:46 13,2 C 89 % 1020,5 hPa 0,0 l/m 18,5 km/h (3 Bft) W 275 0 min 0 W/m 11,4 C 7,9 C 18,5 km/h (3 Bft)
06.04.2011 20:50 13,2 C 89 % 1020,5 hPa 0,0 l/m 11,1 km/h (2 Bft) W 265 0 min 0 W/m 11,4 C 10,6 C 11,1 km/h (2 Bft)
06.04.2011 20:55 13,2 C 89 % 1020,5 hPa 0,0 l/m 10,5 km/h (2 Bft) W 260 0 min 0 W/m 11,4 C 10,9 C 10,5 km/h (2 Bft)
06.04.2011 21:00 13,2 C 89 % 1020,5 hPa 0,0 l/m 11,3 km/h (2 Bft) W-SW 250 0 min 0 W/m 11,4 C 10,5 C 11,3 km/h (2 Bft)
06.04.2011 21:05 13,2 C 89 % 1020,5 hPa 0,0 l/m 16,3 km/h (3 Bft) W-SW 255 0 min 0 W/m 11,4 C 8,6 C 16,3 km/h (3 Bft)
06.04.2011 21:10 13,2 C 89 % 1020,5 hPa 0,0 l/m 20,0 km/h (4 Bft) W 260 0 min 0 W/m 11,4 C 7,4 C 20,0 km/h (4 Bft)
06.04.2011 21:15 13,4 C 90 % 1020,5 hPa 0,0 l/m 14,8 km/h (3 Bft) W 265 0 min 0 W/m 11,8 C 9,3 C 14,8 km/h (3 Bft)
06.04.2011 21:21 13,5 C 90 % 1020,5 hPa 0,0 l/m 19,9 km/h (4 Bft) W-SW 255 0 min 0 W/m 11,9 C 7,8 C 19,9 km/h (4 Bft)
06.04.2011 21:26 13,6 C 90 % 1020,5 hPa 0,0 l/m 21,8 km/h (4 Bft) W-SW 250 0 min 0 W/m 12,0 C 7,5 C 21,8 km/h (4 Bft)
06.04.2011 21:30 13,7 C 90 % 1020,5 hPa 0,0 l/m 21,7 km/h (4 Bft) W-SW 250 0 min 0 W/m 12,1 C 7,6 C 21,7 km/h (4 Bft)
06.04.2011 21:35 13,7 C 90 % 1020,5 hPa 0,0 l/m 23,1 km/h (4 Bft) W-SW 250 0 min 0 W/m 12,1 C 7,3 C 23,1 km/h (4 Bft)
06.04.2011 21:40 13,8 C 90 % 1020,5 hPa 0,0 l/m 20,5 km/h (4 Bft) W-SW 255 0 min 0 W/m 12,2 C 8,1 C 20,5 km/h (4 Bft)
06.04.2011 21:46 13,8 C 90 % 1020,5 hPa 0,0 l/m 19,3 km/h (3 Bft) W-SW 250 0 min 0 W/m 12,2 C 8,4 C 19,3 km/h (3 Bft)
06.04.2011 21:51 13,7 C 89 % 1020,5 hPa 0,0 l/m 19,3 km/h (3 Bft) W-SW 250 0 min 0 W/m 11,9 C 8,3 C 19,3 km/h (3 Bft)
06.04.2011 21:55 13,7 C 89 % 1020,5 hPa 0,0 l/m 18,5 km/h (3 Bft) W-SW 250 0 min 0 W/m 11,9 C 8,5 C 18,5 km/h (3 Bft)
06.04.2011 22:00 13,7 C 89 % 1020,5 hPa 0,0 l/m 21,9 km/h (4 Bft) W-SW 250 0 min 0 W/m 11,9 C 7,6 C 21,9 km/h (4 Bft)
06.04.2011 22:06 13,7 C 89 % 1020,5 hPa 0,0 l/m 24,1 km/h (4 Bft) W-SW 250 0 min 0 W/m 11,9 C 7,0 C 24,1 km/h (4 Bft)
06.04.2011 22:10 13,7 C 89 % 1020,5 hPa 0,0 l/m 20,7 km/h (4 Bft) W-SW 250 0 min 0 W/m 11,9 C 7,9 C 20,7 km/h (4 Bft)
06.04.2011 22:15 13,7 C 89 % 1020,5 hPa 0,0 l/m 26,4 km/h (4 Bft) W-SW 250 0 min 0 W/m 11,9 C 6,5 C 26,4 km/h (4 Bft)
06.04.2011 22:20 13,8 C 89 % 1020,5 hPa 0,0 l/m 26,7 km/h (4 Bft) W-SW 255 0 min 0 W/m 12,0 C 6,6 C 26,7 km/h (4 Bft)
06.04.2011 22:26 13,8 C 89 % 1020,5 hPa 0,0 l/m 27,0 km/h (5 Bft) W-SW 250 0 min 0 W/m 12,0 C 6,6 C 27,0 km/h (5 Bft)
06.04.2011 22:31 13,8 C 89 % 1020,5 hPa 0,0 l/m 27,0 km/h (5 Bft) W-SW 250 0 min 0 W/m 12,0 C 6,6 C 27,0 km/h (5 Bft)
06.04.2011 22:35 13,8 C 89 % 1020,5 hPa 0,0 l/m 26,8 km/h (4 Bft) W-SW 255 0 min 0 W/m 12,0 C 6,6 C 26,8 km/h (4 Bft)
06.04.2011 22:40 13,8 C 89 % 1020,5 hPa 0,0 l/m 30,9 km/h (5 Bft) W-SW 255 0 min 0 W/m 12,0 C 5,8 C 30,9 km/h (5 Bft)
06.04.2011 22:45 13,8 C 89 % 1020,5 hPa 0,0 l/m 30,9 km/h (5 Bft) W-SW 255 0 min 0 W/m 12,0 C 5,8 C 30,9 km/h (5 Bft)
06.04.2011 22:51 13,9 C 89 % 1020,5 hPa 0,0 l/m 28,4 km/h (5 Bft) W-SW 250 0 min 0 W/m 12,1 C 6,4 C 28,4 km/h (5 Bft)
06.04.2011 22:56 13,9 C 89 % 1020,5 hPa 0,0 l/m 28,4 km/h (5 Bft) W-SW 245 0 min 0 W/m 12,1 C 6,4 C 28,4 km/h (5 Bft)
06.04.2011 23:00 13,9 C 89 % 1020,5 hPa 0,0 l/m 30,9 km/h (5 Bft) W 260 0 min 0 W/m 12,1 C 6,0 C 30,9 km/h (5 Bft)
06.04.2011 23:06 13,9 C 89 % 1020,5 hPa 0,0 l/m 31,6 km/h (5 Bft) W 260 0 min 0 W/m 12,1 C 5,9 C 31,6 km/h (5 Bft)
06.04.2011 23:10 14,0 C 89 % 1020,5 hPa 0,0 l/m 31,6 km/h (5 Bft) W 260 0 min 0 W/m 12,2 C 6,0 C 31,6 km/h (5 Bft)
06.04.2011 23:15 14,0 C 89 % 1020,5 hPa 0,0 l/m 32,5 km/h (5 Bft) W-SW 250 0 min 0 W/m 12,2 C 5,9 C 32,5 km/h (5 Bft)
06.04.2011 23:20 13,9 C 88 % 1020,5 hPa 0,0 l/m 31,8 km/h (5 Bft) W-SW 250 0 min 0 W/m 11,9 C 5,8 C 31,8 km/h (5 Bft)
06.04.2011 23:26 13,9 C 89 % 1020,5 hPa 0,0 l/m 30,2 km/h (5 Bft) W 260 0 min 0 W/m 12,1 C 6,1 C 30,2 km/h (5 Bft)
06.04.2011 23:31 13,9 C 89 % 1020,5 hPa 0,0 l/m 29,8 km/h (5 Bft) W 260 0 min 0 W/m 12,1 C 6,2 C 29,8 km/h (5 Bft)
06.04.2011 23:35 13,9 C 89 % 1019,5 hPa 0,0 l/m 33,6 km/h (5 Bft) W-SW 255 0 min 0 W/m 12,1 C 5,5 C 33,6 km/h (5 Bft)
06.04.2011 23:40 13,9 C 89 % 1019,5 hPa 0,0 l/m 28,8 km/h (5 Bft) W-SW 255 0 min 0 W/m 12,1 C 6,4 C 28,8 km/h (5 Bft)
06.04.2011 23:45 13,9 C 89 % 1019,5 hPa 0,0 l/m 30,2 km/h (5 Bft) W-SW 250 0 min 0 W/m 12,1 C 6,1 C 30,2 km/h (5 Bft)
06.04.2011 23:51 13,9 C 88 % 1019,5 hPa 0,0 l/m 33,1 km/h (5 Bft) W-SW 255 0 min 0 W/m 11,9 C 5,6 C 33,1 km/h (5 Bft)
06.04.2011 23:56 13,8 C 89 % 1019,5 hPa 0,0 l/m 28,5 km/h (5 Bft) W 260 0 min 0 W/m 12,0 C 6,3 C 28,5 km/h (5 Bft)
_ Min-Zeit 01:50 13:21 03:50 - 20:55 - - - - 04:15 01:46 20:55
Minimum _ 9,7 C 77 % 1017,5 hPa - 10,5 km/h (2 Bft) - - - - 7,8 C -1,4 C 10,5 km/h (2 Bft)
_ Max-Zeit 13:15 07:30 11:55 00:01 02:56 - - 00:01 00:01 23:10 20:55 02:56
Maximum _ 15,3 C 93 % 1021,5 hPa 0,0 l/m 42,3 km/h
W-SW (6 Bft)
- - 0 min 0 W/m 12,2 C 10,9 C 42,3 km/h
W-SW (6 Bft)
Durchschnitt _ 12,2 C 88 % 1020,0 hPa #0,0 l/m 28,7 km/h (5 Bft) W - #0 min. 0 W/m 10,2 C 4,1 C 28,7 km/h (5 Bft)
copyright by Holger Just